TimeCST,TemperatureF,Dew PointF,Humidity,Sea Level PressureIn,VisibilityMPH,Wind Direction,Wind SpeedMPH,Gust SpeedMPH,PrecipitationIn,Events,Conditions,WindDirDegrees,DateUTC
12:15 AM,24.8,16.3,70,30.29,7.0,South,11.5,-,N/A,Snow,Light Snow,180,2013-02-02 06:15:00
12:35 AM,23.9,18.5,80,30.29,2.5,South,10.4,-,N/A,Snow,Light Snow,180,2013-02-02 06:35:00
12:55 AM,23.9,19.4,83,30.28,2.0,South,10.4,-,N/A,Snow,Light Snow,180,2013-02-02 06:55:00
1:15 AM,24.1,19.9,84,30.27,2.5,South,10.4,-,N/A,Snow,Light Snow,180,2013-02-02 07:15:00
1:35 AM,24.1,20.1,85,30.26,2.5,South,8.1,-,N/A,Snow,Light Snow,170,2013-02-02 07:35:00
1:55 AM,23.9,20.3,86,30.25,3.0,South,10.4,-,N/A,Snow,Light Snow,170,2013-02-02 07:55:00
2:15 AM,24.1,20.5,86,30.25,2.0,South,10.4,-,N/A,Snow,Light Snow,180,2013-02-02 08:15:00
2:35 AM,24.3,20.7,86,30.25,1.8,South,11.5,-,N/A,Snow,Light Snow,190,2013-02-02 08:35:00
2:55 AM,24.4,21.2,87,30.24,2.0,SSW,9.2,-,N/A,Snow,Light Snow,200,2013-02-02 08:55:00
3:15 AM,24.6,21.7,89,30.22,1.5,South,9.2,-,N/A,Snow,Light Snow,180,2013-02-02 09:15:00
3:35 AM,24.8,21.4,87,30.21,7.0,South,9.2,-,N/A,Snow,Light Snow,180,2013-02-02 09:35:00
3:55 AM,25.3,21.0,84,30.22,7.0,SSW,9.2,-,N/A,,Overcast,210,2013-02-02 09:55:00
4:15 AM,25.5,20.8,82,30.20,10.0,South,10.4,-,N/A,,Overcast,190,2013-02-02 10:15:00
4:35 AM,25.7,20.8,82,30.19,10.0,South,8.1,-,N/A,,Overcast,170,2013-02-02 10:35:00
4:55 AM,25.7,21.0,82,30.17,10.0,SE,9.2,-,N/A,,Overcast,140,2013-02-02 10:55:00
5:15 AM,25.5,20.8,82,30.16,10.0,SSE,11.5,-,N/A,,Overcast,150,2013-02-02 11:15:00
5:35 AM,26.2,20.1,78,30.14,10.0,SSE,12.7,-,N/A,,Overcast,150,2013-02-02 11:35:00
5:55 AM,26.2,19.8,76,30.15,10.0,South,5.8,-,N/A,,Overcast,180,2013-02-02 11:55:00
6:15 AM,26.6,19.4,74,30.15,10.0,South,6.9,-,N/A,,Overcast,180,2013-02-02 12:15:00
6:35 AM,27.3,19.0,71,30.14,10.0,South,5.8,-,N/A,,Overcast,180,2013-02-02 12:35:00
6:55 AM,26.6,18.5,71,30.14,10.0,South,5.8,-,N/A,,Mostly Cloudy,170,2013-02-02 12:55:00
7:15 AM,27.1,18.5,70,30.14,10.0,South,5.8,-,N/A,,Mostly Cloudy,170,2013-02-02 13:15:00
7:35 AM,28.2,18.5,67,30.13,10.0,South,6.9,-,N/A,,Overcast,180,2013-02-02 13:35:00
7:55 AM,28.8,18.9,67,30.13,10.0,South,10.4,-,N/A,,Overcast,190,2013-02-02 13:55:00
8:15 AM,29.3,18.9,65,30.13,10.0,South,13.8,-,N/A,,Overcast,190,2013-02-02 14:15:00
8:55 AM,30.2,19.4,64,30.11,10.0,SSW,10.4,-,N/A,,Overcast,200,2013-02-02 14:55:00
9:15 AM,31.1,19.9,63,30.11,10.0,SSW,11.5,-,N/A,,Overcast,200,2013-02-02 15:15:00
9:35 AM,31.3,20.5,64,30.11,10.0,SSW,10.4,-,N/A,,Overcast,210,2013-02-02 15:35:00
9:55 AM,31.6,21.6,66,30.11,5.0,SW,13.8,19.6,N/A,Snow,Light Snow,220,2013-02-02 15:55:00
10:15 AM,31.1,23.5,74,30.11,5.0,SSW,12.7,-,N/A,,Haze,210,2013-02-02 16:15:00
10:35 AM,30.7,24.8,79,30.10,2.0,SSW,10.4,-,N/A,Snow,Light Snow,210,2013-02-02 16:35:00
10:55 AM,30.7,25.7,82,30.10,1.5,SSW,10.4,-,N/A,Snow,Light Snow,200,2013-02-02 16:55:00
11:15 AM,31.1,26.4,83,30.09,2.0,SSW,9.2,-,N/A,Snow,Light Snow,210,2013-02-02 17:15:00
11:35 AM,31.8,25.5,78,30.08,7.0,SW,10.4,-,N/A,Snow,Light Snow,220,2013-02-02 17:35:00
11:55 AM,32.0,25.5,77,30.07,10.0,SW,10.4,-,N/A,,Overcast,220,2013-02-02 17:55:00
12:15 PM,32.2,25.3,76,30.06,10.0,SW,9.2,-,N/A,,Overcast,220,2013-02-02 18:15:00
12:35 PM,32.9,25.2,73,30.05,10.0,SW,9.2,-,N/A,,Overcast,230,2013-02-02 18:35:00
12:55 PM,34.2,25.0,69,30.05,10.0,WSW,10.4,-,N/A,,Overcast,250,2013-02-02 18:55:00
1:15 PM,34.3,25.5,70,30.06,10.0,WSW,12.7,-,N/A,,Overcast,240,2013-02-02 19:15:00
1:55 PM,34.9,24.3,65,30.05,10.0,West,11.5,18.4,N/A,,Overcast,270,2013-02-02 19:55:00
2:15 PM,35.1,24.1,64,30.06,10.0,West,13.8,18.4,N/A,,Overcast,260,2013-02-02 20:15:00
2:35 PM,34.9,24.3,65,30.06,10.0,West,10.4,-,N/A,,Overcast,270,2013-02-02 20:35:00
3:15 PM,35.2,24.4,65,30.07,10.0,WNW,10.4,-,N/A,,Overcast,290,2013-02-02 21:15:00
3:35 PM,35.1,25.2,67,30.07,10.0,West,8.1,-,N/A,,Overcast,280,2013-02-02 21:35:00
3:55 PM,35.1,25.2,67,30.07,10.0,West,4.6,-,N/A,,Overcast,280,2013-02-02 21:55:00
4:15 PM,34.7,25.7,70,30.07,10.0,WNW,5.8,-,N/A,,Overcast,290,2013-02-02 22:15:00
4:35 PM,34.2,26.1,72,30.07,10.0,WNW,5.8,-,N/A,,Mostly Cloudy,290,2013-02-02 22:35:00
4:55 PM,34.2,26.6,74,30.08,10.0,WNW,10.4,-,N/A,,Scattered Clouds,300,2013-02-02 22:55:00
5:15 PM,33.1,26.2,76,30.09,10.0,NW,10.4,-,N/A,,Scattered Clouds,310,2013-02-02 23:15:00
5:35 PM,32.7,25.5,75,30.09,10.0,NW,9.2,-,N/A,,Mostly Cloudy,320,2013-02-02 23:35:00
5:55 PM,32.0,25.2,76,30.10,10.0,NW,9.2,-,N/A,,Mostly Cloudy,310,2013-02-02 23:55:00
6:15 PM,31.6,24.4,75,30.10,10.0,WNW,6.9,-,N/A,,Scattered Clouds,290,2013-02-03 00:15:00
6:35 PM,30.9,23.4,74,30.11,10.0,WNW,11.5,-,N/A,,Scattered Clouds,290,2013-02-03 00:35:00
6:55 PM,30.9,23.0,72,30.11,10.0,WNW,10.4,-,N/A,,Scattered Clouds,300,2013-02-03 00:55:00
7:15 PM,30.7,22.5,71,30.11,10.0,NW,13.8,18.4,N/A,,Clear,320,2013-02-03 01:15:00
7:35 PM,28.9,23.4,80,30.13,10.0,NW,10.4,-,N/A,,Scattered Clouds,310,2013-02-03 01:35:00
7:55 PM,28.4,23.0,80,30.13,10.0,NW,9.2,-,N/A,,Scattered Clouds,310,2013-02-03 01:55:00
8:15 PM,28.4,23.0,80,30.12,10.0,NW,6.9,-,N/A,,Mostly Cloudy,310,2013-02-03 02:15:00
8:35 PM,27.5,21.0,77,30.12,10.0,NW,10.4,-,N/A,,Scattered Clouds,320,2013-02-03 02:35:00
8:55 PM,27.1,20.7,77,30.13,10.0,NW,8.1,-,N/A,,Mostly Cloudy,310,2013-02-03 02:55:00
9:15 PM,26.1,19.9,78,30.13,10.0,NW,6.9,-,N/A,,Scattered Clouds,320,2013-02-03 03:15:00
9:35 PM,25.7,19.4,77,30.13,10.0,NW,5.8,-,N/A,,Mostly Cloudy,320,2013-02-03 03:35:00
9:55 PM,25.5,18.9,76,30.13,10.0,NW,8.1,-,N/A,,Overcast,310,2013-02-03 03:55:00
10:15 PM,24.8,18.5,77,30.13,10.0,NW,4.6,-,N/A,,Mostly Cloudy,310,2013-02-03 04:15:00
10:35 PM,24.8,18.0,75,30.12,10.0,NW,5.8,-,N/A,,Overcast,320,2013-02-03 04:35:00
10:55 PM,24.8,17.6,74,30.12,10.0,NW,6.9,-,N/A,,Overcast,320,2013-02-03 04:55:00
11:15 PM,24.1,17.6,76,30.11,10.0,NNW,5.8,-,N/A,,Overcast,330,2013-02-03 05:15:00
11:35 PM,23.9,17.6,77,30.11,10.0,North,6.9,-,N/A,,Overcast,10,2013-02-03 05:35:00
11:55 PM,23.4,17.2,77,30.11,10.0,North,4.6,-,N/A,,Overcast,10,2013-02-03 05:55:00